TimeCST,TemperatureF,Dew PointF,Humidity,Sea Level PressureIn,VisibilityMPH,Wind Direction,Wind SpeedMPH,Gust SpeedMPH,PrecipitationIn,Events,Conditions,WindDirDegrees,DateUTC
12:53 AM,48.0,42.1,80,29.55,10.0,SW,5.8,-,N/A,,Clear,230,2013-01-12 06:53:00
1:53 AM,51.1,42.1,71,29.56,10.0,SSW,15.0,23.0,N/A,,Scattered Clouds,210,2013-01-12 07:53:00
2:53 AM,50.0,41.0,71,29.58,10.0,SSW,13.8,21.9,N/A,,Scattered Clouds,210,2013-01-12 08:53:00
3:53 AM,48.9,39.9,71,29.62,10.0,WSW,16.1,26.5,N/A,,Mostly Cloudy,240,2013-01-12 09:53:00
4:19 AM,46.4,39.2,76,29.63,10.0,SW,21.9,35.7,N/A,,Overcast,230,2013-01-12 10:19:00
4:53 AM,42.1,35.1,76,29.69,10.0,WSW,17.3,34.5,N/A,,Overcast,240,2013-01-12 10:53:00
5:53 AM,36.0,28.9,76,29.76,10.0,WSW,18.4,29.9,N/A,,Overcast,250,2013-01-12 11:53:00
6:53 AM,33.1,26.1,75,29.81,10.0,WSW,18.4,31.1,N/A,,Overcast,240,2013-01-12 12:53:00
7:53 AM,30.0,21.9,72,29.87,10.0,WSW,19.6,27.6,N/A,,Overcast,240,2013-01-12 13:53:00
8:24 AM,28.4,19.4,69,29.87,10.0,West,18.4,31.1,N/A,,Partly Cloudy,270,2013-01-12 14:24:00
8:53 AM,27.0,17.1,66,29.92,10.0,SW,18.4,27.6,N/A,,Scattered Clouds,230,2013-01-12 14:53:00
9:08 AM,26.6,17.6,69,29.89,10.0,SW,12.7,21.9,N/A,,Mostly Cloudy,230,2013-01-12 15:08:00
9:15 AM,26.6,15.8,64,29.90,10.0,West,13.8,21.9,N/A,,Scattered Clouds,260,2013-01-12 15:15:00
9:53 AM,26.1,15.1,63,29.95,10.0,WSW,12.7,24.2,N/A,,Clear,240,2013-01-12 15:53:00
10:53 AM,27.0,16.0,63,29.96,10.0,West,17.3,23.0,N/A,,Clear,260,2013-01-12 16:53:00
11:53 AM,27.0,16.0,63,29.95,10.0,West,8.1,17.3,N/A,,Clear,260,2013-01-12 17:53:00
12:53 PM,28.0,16.0,61,29.96,10.0,WSW,10.4,18.4,N/A,,Clear,250,2013-01-12 18:53:00
1:53 PM,27.0,15.1,61,29.99,10.0,SW,13.8,19.6,N/A,,Clear,230,2013-01-12 19:53:00
2:53 PM,26.1,15.1,63,29.99,10.0,West,11.5,-,N/A,,Partly Cloudy,270,2013-01-12 20:53:00
3:23 PM,26.6,15.8,64,29.98,10.0,WSW,6.9,-,N/A,,Mostly Cloudy,240,2013-01-12 21:23:00
3:53 PM,26.1,16.0,66,30.02,10.0,WSW,8.1,17.3,N/A,,Scattered Clouds,250,2013-01-12 21:53:00
4:53 PM,24.1,14.0,65,30.04,10.0,WSW,9.2,-,N/A,,Clear,250,2013-01-12 22:53:00
5:53 PM,23.0,12.9,65,30.03,10.0,West,5.8,-,N/A,,Clear,280,2013-01-12 23:53:00
6:45 PM,23.0,12.2,63,30.00,10.0,WNW,8.1,-,N/A,,Mostly Cloudy,290,2013-01-13 00:45:00
7:20 PM,23.0,12.2,63,30.03,10.0,WNW,8.1,-,N/A,,Mostly Cloudy,290,2013-01-13 01:20:00
7:53 PM,21.9,12.0,66,30.04,10.0,WNW,10.4,-,N/A,,Partly Cloudy,300,2013-01-13 01:53:00
8:46 PM,21.2,12.2,68,30.03,10.0,WNW,8.1,-,N/A,,Mostly Cloudy,300,2013-01-13 02:46:00
8:53 PM,21.9,12.0,66,30.06,10.0,Variable,4.6,-,N/A,,Overcast,0,2013-01-13 02:53:00
9:53 PM,21.0,12.0,68,30.06,10.0,West,6.9,-,N/A,,Overcast,260,2013-01-13 03:53:00
10:40 PM,19.4,10.4,68,29.99,10.0,WNW,6.9,-,N/A,,Mostly Cloudy,300,2013-01-13 04:40:00
10:53 PM,19.9,10.0,65,30.02,10.0,NW,6.9,-,N/A,,Mostly Cloudy,310,2013-01-13 04:53:00
11:14 PM,19.4,10.4,68,30.02,10.0,West,8.1,-,N/A,,Mostly Cloudy,280,2013-01-13 05:14:00
11:53 PM,19.9,10.0,65,30.06,10.0,NW,6.9,-,N/A,,Overcast,310,2013-01-13 05:53:00